Weather Roundup
Issued by NWS Corpus Christi, TX

Home | Current Version | Previous Version | Text Only | Print | Product List | Glossary On
Versions: 1 2 3 4 5 6 7 8 9 10 11 12 13 14 15 16 17 18 19 20 21 22 23 24 25 26 27 28 29 30 31 32 33 34 35 36 37 38 39 40 41 42 43 44 45 46 47 48 49 50
000
ASUS44 KCRP 251210
HRRCRP

SOUTH TEXAS REGIONAL WEATHER ROUNDUP
NATIONAL WEATHER SERVICE CORPUS CHRISTI TX
700 AM CDT MON MAY 25 2015


TXZ229>244-251300-
...CORPUS CHRISTI AREA OBSERVATIONS...

CITY           SKY/WX    TMP DP  RH WIND       PRES   REMARKS
CORPUS CHRISTI PTCLDY    77  73  87 SE16      29.86S
NAS CORPUS CHR MOCLDY    79  75  87 SE16      29.87R
ROCKPORT       MOCLDY    80  74  81 SE12      29.87S
KINGSVILLE NAS CLEAR     78  76  93 SE12      29.85R
ALICE          CLOUDY    76  73  91 SE8       29.85R
FALFURRIAS     CLOUDY    76  73  91 SE8       29.84S
$$

...VICTORIA AREA OBSERVATIONS...

CITY           SKY/WX    TMP DP  RH WIND       PRES   REMARKS
VICTORIA       PTCLDY    74  74 100 SE8       29.90R
BEEVILLE       FAIR      73  73 100 E7        29.87S FOG
PLEASANTON     CLOUDY    73  72  94 E6        29.87R
SAN ANTONIO    CLOUDY    75  71  87 SE9       29.89S
$$

...LAREDO AREA OBSERVATIONS...

CITY           SKY/WX    TMP DP  RH WIND       PRES   REMARKS
LAREDO         CLOUDY    77  72  84 SE16      29.82R
COTULLA        CLOUDY    76  71  85 SE12      29.83S
DEL RIO        CLOUDY    74  71  91 SE9       29.81R
MCALLEN        CLOUDY    79  74  84 SE12      29.83S
HEBBRONVILLE     N/A     75  72  91 SE14      29.83F
$$

...OTHER TEXAS OBSERVATIONS...

CITY           SKY/WX    TMP DP  RH WIND       PRES   REMARKS
BROWNSVILLE    MOCLDY    79  76  90 SE13      29.85R
HOUSTON        MOCLDY    72  70  93 SE5       29.96R
COL. STATION   CLOUDY    73  70  90 SE10      29.92S
AUSTIN         CLOUDY    73  71  93 S12       29.88F
WACO           LGT RAIN  71  69  93 S10       29.90R
FORT WORTH     DRIZZLE   68  68 100 S9        29.89R
WICHITA FALLS  CLOUDY    69  67  93 S15       29.86R
LUBBOCK        CLOUDY    58  51  78 W5        29.89R
EL PASO        PTCLDY    64  32  30 NW7       29.96R
$$

...MARINE OBSERVATIONS...

STATION/POSITION TIME  SKY/WX   TEMP    WIND        PRES    VSBY  WAVE   SWELL
                                AIR SEA DIR/SP/G                  HT/PER HT/PER
                 (UTC)          (F)     (DEG/KT/KT) (MB)    (MI)  (FT/S) (FT/S)
PORT ARANSAS     1200            80 79  130/ 22/ 25 1011.9R
BUOY 90 E PORT A 1150            80 79  160/ 16/ 17 1013.4R         5/ 7   2/11
BUOY 45 SE BAFFI 1150            80 80  150/ 17/ 21 1011.1R         5/ 7
BUOY 200 E PT IS 1150            82 81  130/ 17/ 21 1014.0R         5/ 5
BUOY 15 E GALVES 1150            79 79  140/ 14/ 17 1013.8R         3/ 7   2/14
$$


USA.gov is the U.S. government's official web portal to all federal, state and local government web resources and services.